Weather History for LFQQ - March, 2013

Change the Weather History Date:

Sunday, March 17, 2013

  Actual Average Record
Temperature  
Mean Temperature 44 °F -  
Max Temperature 50 °F 53 °F 69 °F (2004)
Min Temperature 39 °F 39 °F 30 °F (2006)
Degree Days  
Heating Degree Days 20    
Moisture  
Dew Point 37 °F    
Average Humidity 82    
Maximum Humidity 93    
Minimum Humidity 62    
Precipitation  
Precipitation 0.04 in - - ()
Sea Level Pressure  
Sea Level Pressure 29.35 in    
Wind  
Wind Speed 13 mph ()    
Max Wind Speed 28 mph    
Max Gust Speed 40 mph    
Visibility 6.6 miles    
Events Rain    
Averages and records for this station are not official NWS values.
T = Trace of Precipitation, MM = Missing Value Source: Averaged Metar Reports

Daily Weather History Graph

Daily Weather History Graph

Search for Another Location

Airport or City:

Trip Planner

Search our weather history database for the weather conditions in past years. The results will help you decide how hot, cold, wet, or windy it might be!

Date:

Astronomy

Mar. 17, 2013 Rise Set
Actual Time 6:56 AM CET 6:55 PM CET
Civil Twilight 6:24 AM CET 7:28 PM CET
Nautical Twilight 5:46 AM CET 8:06 PM CET
Astronomical Twilight 5:06 AM CET 8:46 PM CET
Moon 9:24 AM CET (3/17) 12:22 AM CET (3/17)
Length of Visible Light 13h 04m
Length of Day
11h 58m
Waxing Crescent, 29% of the Moon is Illuminated
Mar 17
Waxing Crescent
Mar 19
First Quarter
Mar 27
Full
Apr 3
Last Quarter
Apr 10
New

Hourly Weather History & Observations

Time (CET) Temp. Windchill Dew Point Humidity Pressure Visibility Wind Dir Wind Speed Gust Speed Precip Events Conditions
12:00 AM 41.0 °F 32.8 °F 35.6 °F 81% 29.50 in 6.2 mi South 16.1 mph - N/A   Mostly Cloudy
1:00 AM 40 °F - 36 °F 80% 29.50 in 16 mi South 15.0 mph - -   Partly Cloudy
1:17 AM 41.0 °F 33.5 °F 35.6 °F 81% 29.47 in 6.2 mi South 13.8 mph - N/A   Mostly Cloudy
1:30 AM 41.0 °F 33.9 °F 35.6 °F 81% 29.47 in 6.2 mi South 12.7 mph - N/A   Mostly Cloudy
2:00 AM 41.0 °F 34.3 °F 35.6 °F 81% 29.47 in 6.2 mi South 11.5 mph - N/A   Overcast
2:30 AM 41.0 °F 34.3 °F 35.6 °F 81% 29.47 in 6.2 mi South 11.5 mph - N/A   Overcast
3:00 AM 41.0 °F 34.3 °F 37.4 °F 87% 29.44 in 6.2 mi South 11.5 mph - N/A   Overcast
3:30 AM 39.2 °F 32.0 °F 35.6 °F 87% 29.44 in 6.2 mi South 11.5 mph - N/A   Overcast
3:54 AM 39.2 °F 32.5 °F 37.4 °F 93% 29.44 in 6.2 mi South 10.4 mph - N/A   Mostly Cloudy
5:00 AM 41.0 °F 33.9 °F 37.4 °F 87% 29.44 in 6.2 mi South 12.7 mph - N/A   Overcast
5:30 AM 41.0 °F 33.9 °F 37.4 °F 87% 29.44 in 6.2 mi South 12.7 mph - N/A   Mostly Cloudy
6:00 AM 41.0 °F 33.9 °F 37.4 °F 87% 29.44 in 6.2 mi South 12.7 mph - N/A   Mostly Cloudy
6:30 AM 39.2 °F 32.0 °F 37.4 °F 93% 29.42 in 6.2 mi South 11.5 mph - N/A   Mostly Cloudy
7:00 AM 39 °F - 36 °F 86% 29.45 in 6 mi South 11.5 mph - -   Partly Cloudy
7:00 AM 39.2 °F 32.0 °F 35.6 °F 87% 29.42 in 5.6 mi South 11.5 mph - N/A   Partly Cloudy
7:30 AM 39.2 °F 32.0 °F 37.4 °F 93% 29.42 in 6.2 mi South 11.5 mph - N/A   Mostly Cloudy
8:00 AM 39.2 °F 32.0 °F 37.4 °F 93% 29.42 in 6.2 mi South 11.5 mph - N/A   Mostly Cloudy
8:30 AM 41.0 °F 33.9 °F 37.4 °F 87% 29.42 in 6.2 mi South 12.7 mph - N/A   Mostly Cloudy
9:00 AM 41.0 °F 34.3 °F 37.4 °F 87% 29.42 in 6.2 mi South 11.5 mph - N/A   Mostly Cloudy
9:30 AM 42.8 °F 36.2 °F 37.4 °F 81% 29.42 in 6.2 mi South 12.7 mph - N/A   Mostly Cloudy
10:00 AM 42.8 °F 36.2 °F 37.4 °F 81% 29.42 in 6.2 mi South 12.7 mph - N/A   Mostly Cloudy
10:30 AM 42.8 °F 35.1 °F 37.4 °F 81% 29.42 in 6.2 mi South 16.1 mph - N/A   Mostly Cloudy
11:00 AM 44.6 °F 37.8 °F 39.2 °F 81% 29.39 in 6.2 mi South 15.0 mph - N/A   Mostly Cloudy
11:30 AM 44.6 °F 37.4 °F 37.4 °F 76% 29.39 in 6.2 mi South 16.1 mph - N/A   Mostly Cloudy
12:00 PM 46.4 °F 39.0 °F 39.2 °F 76% 29.39 in 6.2 mi South 19.6 mph - N/A   Mostly Cloudy
12:30 PM 48.2 °F - 39.2 °F 71% 29.36 in 6.2 mi South 13.8 mph - N/A   Mostly Cloudy
1:00 PM 47 °F - 38 °F 63% 29.37 in 25 mi South 18.4 mph - -   Mostly Cloudy
1:00 PM 46.4 °F 39.2 °F 39.2 °F 76% 29.36 in 6.2 mi South 18.4 mph - N/A   Mostly Cloudy
1:30 PM 46.4 °F 39.5 °F 39.2 °F 76% 29.33 in 6.2 mi South 17.3 mph - N/A   Mostly Cloudy
2:00 PM 48.2 °F - 39.2 °F 71% 29.33 in 6.2 mi South 15.0 mph - N/A   Mostly Cloudy
2:30 PM 50.0 °F - 37.4 °F 62% 29.30 in 6.2 mi South 17.3 mph - N/A   Mostly Cloudy
3:00 PM 48.2 °F - 39.2 °F 71% 29.27 in 6.2 mi South 15.0 mph - N/A   Mostly Cloudy
3:30 PM 48.2 °F - 39.2 °F 71% 29.27 in 6.2 mi South 15.0 mph - N/A   Mostly Cloudy
4:00 PM 48.2 °F - 39.2 °F 71% 29.27 in 6.2 mi SSE 18.4 mph - N/A   Scattered Clouds
4:30 PM 48.2 °F - 37.4 °F 66% 29.24 in 6.2 mi South 16.1 mph 28.8 mph N/A   Mostly Cloudy
5:00 PM 46.4 °F 39.5 °F 37.4 °F 71% 29.24 in 6.2 mi South 17.3 mph - N/A   Mostly Cloudy
5:30 PM 46.4 °F 40.4 °F 39.2 °F 76% 29.24 in 6.2 mi SSE 13.8 mph - N/A   Mostly Cloudy
6:00 PM 44.6 °F 35.1 °F 39.2 °F 81% 29.24 in 1.9 mi South 27.6 mph 40.3 mph N/A Rain Light Rain Showers
6:30 PM 41.0 °F 33.9 °F 37.4 °F 87% 29.24 in 6.2 mi South 12.7 mph - N/A Rain Light Rain
7:00 PM 40 °F - 37 °F 84% 29.26 in 19 mi SSE 13.8 mph - - Rain Light Rain
7:00 PM 41.0 °F 33.5 °F 37.4 °F 87% 29.24 in 6.2 mi SSE 13.8 mph - N/A Rain Light Rain
7:30 PM 39.2 °F 31.2 °F 37.4 °F 93% 29.24 in 6.2 mi SSE 13.8 mph - N/A Rain Light Rain
8:00 PM 39.2 °F 30.8 °F 37.4 °F 93% 29.24 in 6.2 mi South 15.0 mph - N/A Rain Light Rain
8:30 PM 39.2 °F 31.6 °F 37.4 °F 93% 29.24 in 6.2 mi South 12.7 mph - N/A Rain Light Rain
9:00 PM 39.2 °F 31.6 °F 37.4 °F 93% 29.24 in 6.2 mi SSE 12.7 mph - N/A Rain Light Rain
9:30 PM 39.2 °F 31.6 °F 37.4 °F 93% 29.24 in 6.2 mi South 12.7 mph - N/A Rain Light Rain
10:00 PM 41.0 °F 33.1 °F 37.4 °F 87% 29.24 in 6.2 mi SSW 15.0 mph - N/A Rain Light Rain
10:30 PM 41.0 °F 32.8 °F 37.4 °F 87% 29.24 in 6.2 mi SW 16.1 mph - N/A   Mostly Cloudy
11:00 PM 41.0 °F 31.9 °F 35.6 °F 81% 29.24 in 6.2 mi SW 19.6 mph - N/A   Mostly Cloudy
11:30 PM 39.2 °F 31.2 °F 33.8 °F 81% 29.27 in 6.2 mi WSW 13.8 mph - N/A   Mostly Cloudy